Regional Weather Roundup
Issued by NWS

Home | Current Version | Previous Version | Text Only | Print | Product List | Glossary Off
Versions: 1 2 3 4 5 6 7 8 9 10 11 12 13 14 15 16 17 18 19 20 21 22 23 24 25 26 27 28 29 30 31 32 33 34 35 36 37 38 39 40 41 42 43 44 45 46 47 48 49 50

000
ASUS43 KLOT 172158
RWRIL

ILLINOIS REGIONAL WEATHER ROUNDUP
NATIONAL WEATHER SERVICE CHICAGO/ROMEOVILLE IL
500 PM CDT THU APR 17 2014

NOTE: "FAIR" INDICATES FEW OR NO CLOUDS BELOW 12,000 FEET WITH NO
SIGNIFICANT WEATHER AND/OR OBSTRUCTIONS TO VISIBILITY.

* THESE STATIONS ARE NOT UNDER NWS QUALITY CONTROL. THEY ALSO MAY NOT
  REPORT WEATHER SUCH AS PRECIPITATION OR FOG.

ILZ001-002-007-009-015-016-024-172300-
NORTHWEST ILLINOIS

CITY           SKY/WX    TMP DP  RH WIND       PRES   REMARKS
MOLINE         MOSUNNY   54  35  48 NW6       30.23R
$$

ILZ003-004-008-010-011-017-018-172300-
NORTH CENTRAL ILLINOIS

CITY           SKY/WX    TMP DP  RH WIND       PRES   REMARKS
ROCKFORD       NOT AVBL
$$

ILZ005-006-012>014-019>023-172300-
NORTHEAST ILLINOIS

CITY           SKY/WX    TMP DP  RH WIND       PRES   REMARKS
CHICAGO-OHARE  CLOUDY    60  37  42 SW13      30.19R
CHICAGO-MIDWAY CLOUDY    60  40  47 W10       30.20R
AURORA         MOSUNNY   58  37  45 SW9       30.21R
WAUKEGAN       MOSUNNY   58  37  45 SW9       30.19R
DUPAGE AIRPORT MOSUNNY   59  38  45 SW9       30.20R
WHEELING       MOSUNNY   60  38  43 SW10      30.20R
NORTHERLY ISL    N/A     60  38  43 W5          N/A
$$

LMZ740>746-172300-
SOUTHERN LAKE MICHIGAN

STATION/POSITION SKY/WX   TEMP    WIND        PRES    VSBY  WAVE
                          AIR SEA DIR/SP/G                  HT/PER
                          (F)     (DEG/KT/KT) (MB)    (MI)  (FT/S)
WAUKEGAN HARBOR            58     250/ 11/ 15 1023.0S
HARRISON CRIB              58     260/ 15/ 18   N/A
BURNHAM HARBOR             60     240/  7/ 15   N/A
CALUMET HARBOR             60     240/  9/ 14 1023.0R
MICHIGAN CITY              53     270/ 10/ 13   N/A
$$

ILZ025>027-034>036-040-047-049-050-058-095>099-172300-
WEST-CENTRAL ILLINOIS

CITY           SKY/WX    TMP DP  RH WIND       PRES   REMARKS
$$

ILZ028>032-037-038-041>044-048-051>054-059>061-172300-
CENTRAL ILLINOIS

CITY           SKY/WX    TMP DP  RH WIND       PRES   REMARKS
PEORIA         NOT AVBL
SPRINGFIELD    NOT AVBL
TAYLORVILLE    NOT AVBL
$$

ILZ033-039-045-046-055>057-062-063-172300-
EAST-CENTRAL ILLINOIS

CITY           SKY/WX    TMP DP  RH WIND       PRES   REMARKS
CHAMPAIGN      CLOUDY    63  37  38 SW13      30.22S
MATTOON        PTSUNNY   64  35  34 SW10      30.22S
$$

ILZ079-100>102-172300-
SOUTHWEST ILLINOIS

CITY           SKY/WX    TMP DP  RH WIND       PRES   REMARKS
ALTON          PTSUNNY   64  32  29 VRB3      30.23S
CAHOKIA*       CLOUDY    67  40  37 NE3       30.21R
$$

ILZ064>066-069>071-074>076-080>082-084>086-088>090-092>094-172300-
SOUTH-CENTRAL ILLINOIS

CITY           SKY/WX    TMP DP  RH WIND       PRES   REMARKS
CARBONDALE     SUNNY     66  41  40 S8        30.22S
MARION         PTSUNNY   68  39  34 S9        30.24S
$$

ILZ067-068-072-073-078-083-087-091-172300-
SOUTHEAST ILLINOIS

CITY           SKY/WX    TMP DP  RH WIND       PRES   REMARKS
$$

ABBREVIATIONS USED IN REMARKS
   TC - TEMPERATURE IN CELSIUS
  WCI - WIND CHILL INDEX
   HX - HEAT INDEX
  VSB - VISIBILITY
$$




USA.gov is the U.S. government's official web portal to all federal, state and local government web resources and services.